This is the latest recevied weather packets stored in our database for station/object HK6LRQ-21. If no packets are shown the sender has not sent any weather packets the latest 10 day(s).
| Time | Temp. | Humidity | Pressure | Rain* | Wind** | Luminosity | Snow |
|---|---|---|---|---|---|---|---|
| 1777820002 | 15.56° C | 10% | - | 0 mm | - | - | - |
| 1777818801 | 16.11° C | 87% | 1017 hPa | 0 mm | - | - | - |
| 1777817600 | 14.44° C | 90% | 1017 hPa | 0 mm | - | - | - |
| 1777816399 | 16.11° C | 88% | 1017 hPa | 0 mm | - | - | - |
| 1777815198 | 13.33° C | 94% | 1017 hPa | 0 mm | - | - | - |
| 1777813997 | 13.33° C | 94% | 1017 hPa | 0 mm | - | - | - |
| 1777812796 | 13.33° C | 94% | 1017 hPa | 0 mm | - | - | - |
| 1777811596 | 13.33° C | 94% | 1017 hPa | 0 mm | - | - | - |
| 1777810395 | 12.78° C | 94% | 1017 hPa | 0 mm | - | - | - |
| 1777809194 | 13.33° C | 94% | 1017 hPa | 0 mm | - | - | - |
| 1777807993 | 13.89° C | 94% | 1017 hPa | 0 mm | - | - | - |
| 1777806792 | 13.33° C | 94% | 1016 hPa | 0 mm | - | - | - |
| 1777805591 | 13.89° C | 94% | 1016 hPa | 0 mm | - | - | - |
| 1777804390 | 13.33° C | 94% | 1016 hPa | 0 mm | - | - | - |
| 1777803189 | 13.89° C | 94% | 1016 hPa | 0 mm | - | - | - |
| 1777801989 | 12.78° C | 93% | 1016 hPa | 0 mm | - | - | - |
| 1777800787 | 13.89° C | 93% | 1016 hPa | 0 mm | - | - | - |
| 1777799587 | 10.56° C | 90% | 1016 hPa | 0 mm | - | - | - |
| 1777798386 | 11.11° C | 90% | 1016 hPa | 0 mm | - | - | - |
| 1777797185 | 10.56° C | 90% | 1016 hPa | 0 mm | - | - | - |
| 1777795984 | 10.56° C | 90% | 1016 hPa | 0 mm | - | - | - |
| 1777794783 | 10.56° C | 90% | 1016 hPa | 0 mm | - | - | - |
| 1777793582 | 10.56° C | 90% | 1016 hPa | 0 mm | - | - | - |
| 1777792381 | 10.56° C | 90% | 1017 hPa | 0 mm | - | - | - |
| 1777791180 | 10.56° C | 90% | 1017 hPa | 0 mm | - | - | - |
* Rain latest hour (hover to see other rain measurements)
** Current wind speed in m/s (hover to see current wind gust speed)